DAL2340 KATL-KJFK

Flight info

Callsign DAL2340
Flight time N/A
Altitude 35000
Route PHIIL3 HRTWL Q64 SAWED Q108 SIE CAMRN5
Aircraft A321/M-SDE3FGHIRWY/LB1

Departure

Time 2026-05-04 14:46
Airport Hartsfield Jackson Atlanta International Airport (KATL)

Arrival

Time N/A
Airport John F. Kennedy International Airport (KJFK)
Time Latitude Longitude Altitude Speed Heading
2026-05-04 14:14 33.64298 -84.43521 1007 ft 0 kts 269°
2026-05-04 14:32 33.64298 -84.43500 1006 ft 3 kts 269°
2026-05-04 14:32 33.64297 -84.43473 1006 ft 4 kts 302°
2026-05-04 14:33 33.64278 -84.43459 1006 ft 4 kts 356°
2026-05-04 14:33 33.64263 -84.43458 1006 ft 1 kts
2026-05-04 14:33 33.64262 -84.43458 1006 ft 0 kts
2026-05-04 14:37 33.64263 -84.43458 1006 ft 2 kts
2026-05-04 14:38 33.64298 -84.43458 1006 ft 5 kts
2026-05-04 14:38 33.64331 -84.43458 1006 ft 4 kts
2026-05-04 14:38 33.64356 -84.43458 1006 ft 5 kts
2026-05-04 14:38 33.64418 -84.43453 1006 ft 12 kts 16°
2026-05-04 14:39 33.64506 -84.43421 1006 ft 15 kts 15°
2026-05-04 14:39 33.64541 -84.43306 1007 ft 18 kts 90°
2026-05-04 14:39 33.64540 -84.43148 1007 ft 20 kts 91°
2026-05-04 14:40 33.64541 -84.42826 1006 ft 17 kts 90°
2026-05-04 14:40 33.64542 -84.42693 1006 ft 15 kts 89°
2026-05-04 14:40 33.64542 -84.42573 1006 ft 14 kts 90°
2026-05-04 14:40 33.64542 -84.42462 1006 ft 13 kts 90°
2026-05-04 14:41 33.64542 -84.42360 1006 ft 12 kts 90°
2026-05-04 14:41 33.64542 -84.42270 1006 ft 10 kts 90°
2026-05-04 14:41 33.64542 -84.42104 1006 ft 15 kts 90°
2026-05-04 14:42 33.64542 -84.41799 1006 ft 18 kts 90°
2026-05-04 14:42 33.64543 -84.41653 1007 ft 20 kts 89°
2026-05-04 14:42 33.64543 -84.41474 1007 ft 21 kts 90°
2026-05-04 14:43 33.64542 -84.41302 1007 ft 20 kts 90°
2026-05-04 14:43 33.64542 -84.41140 1007 ft 19 kts 90°
2026-05-04 14:43 33.64543 -84.40987 1006 ft 18 kts 90°
2026-05-04 14:43 33.64545 -84.40842 1006 ft 17 kts 82°
2026-05-04 14:44 33.64570 -84.40712 1006 ft 16 kts 86°
2026-05-04 14:44 33.64582 -84.40589 1005 ft 14 kts 56°
2026-05-04 14:44 33.64665 -84.40591 1004 ft 13 kts 313°
2026-05-04 14:44 33.64681 -84.40694 1004 ft 15 kts 271°
2026-05-04 14:45 33.64679 -84.40996 1007 ft 69 kts 269°
2026-05-04 14:45 33.64680 -84.41831 1008 ft 128 kts 270°
2026-05-04 14:45 33.64676 -84.43096 1031 ft 171 kts 268°
2026-05-04 14:45 33.64670 -84.44535 1604 ft 172 kts 268°
2026-05-04 14:46 33.64734 -84.45976 2271 ft 175 kts 282°
2026-05-04 14:46 33.65252 -84.47307 2884 ft 179 kts 298°
2026-05-04 14:46 33.65858 -84.48706 3124 ft 199 kts 294°
2026-05-04 14:46 33.66436 -84.50263 3389 ft 215 kts 293°
2026-05-04 14:47 33.67058 -84.52003 3550 ft 240 kts 293°
2026-05-04 14:47 33.67744 -84.53912 4051 ft 255 kts 293°
2026-05-04 14:47 33.68462 -84.55875 4816 ft 259 kts 295°
2026-05-04 14:47 33.69586 -84.57567 5540 ft 266 kts 325°
2026-05-04 14:48 33.71353 -84.58273 6206 ft 275 kts 355°
2026-05-04 14:48 33.73288 -84.58350 6900 ft 281 kts 360°
2026-05-04 14:48 33.75227 -84.58309 7598 ft 284 kts
2026-05-04 14:48 33.77212 -84.58200 8343 ft 287 kts
2026-05-04 14:49 33.79074 -84.57386 9041 ft 289 kts 34°
2026-05-04 14:49 33.80478 -84.55681 9763 ft 289 kts 60°
2026-05-04 14:49 33.81145 -84.53419 10442 ft 290 kts 84°
2026-05-04 14:49 33.81238 -84.50919 10699 ft 310 kts 89°
2026-05-04 14:50 33.81265 -84.48233 10832 ft 333 kts 90°
2026-05-04 14:50 33.81272 -84.45362 10951 ft 354 kts 90°
2026-05-04 14:50 33.81271 -84.42379 11287 ft 366 kts 90°
2026-05-04 14:50 33.81274 -84.39295 11835 ft 372 kts 89°
2026-05-04 14:51 33.81284 -84.36159 12383 ft 379 kts 90°
2026-05-04 14:51 33.81050 -84.32989 12978 ft 384 kts 101°
2026-05-04 14:51 33.80405 -84.29857 13600 ft 387 kts 104°
2026-05-04 14:51 33.79712 -84.26709 14167 ft 392 kts 104°
2026-05-04 14:52 33.79005 -84.23524 14668 ft 397 kts 104°
2026-05-04 14:52 33.78284 -84.20293 15159 ft 402 kts 104°
2026-05-04 14:52 33.77563 -84.17069 15635 ft 408 kts 104°
2026-05-04 14:52 33.76827 -84.13754 16103 ft 413 kts 104°
2026-05-04 14:53 33.76087 -84.10400 16583 ft 418 kts 104°
2026-05-04 14:53 33.75340 -84.07008 17048 ft 423 kts 104°
2026-05-04 14:53 33.74580 -84.03571 17497 ft 428 kts 104°
2026-05-04 14:53 33.73810 -84.00101 17948 ft 432 kts 103°
2026-05-04 14:54 33.73029 -83.96594 18394 ft 437 kts 103°
2026-05-04 14:54 33.72233 -83.93046 18786 ft 442 kts 104°
2026-05-04 14:54 33.71430 -83.89473 19209 ft 445 kts 104°
2026-05-04 14:54 33.70632 -83.85924 19633 ft 448 kts 104°
2026-05-04 14:55 33.69816 -83.82298 20055 ft 451 kts 104°
2026-05-04 14:55 33.68997 -83.78653 20469 ft 454 kts 104°
2026-05-04 14:55 33.68171 -83.74979 20874 ft 457 kts 104°
2026-05-04 14:55 33.67340 -83.71286 21286 ft 460 kts 104°
2026-05-04 14:56 33.66578 -83.67550 21686 ft 462 kts 99°
2026-05-04 14:56 33.66258 -83.63703 22080 ft 464 kts 89°
2026-05-04 14:56 33.66442 -83.59842 22465 ft 464 kts 79°
2026-05-04 14:56 33.67069 -83.56090 22855 ft 465 kts 74°
2026-05-04 14:57 33.67792 -83.52291 23250 ft 469 kts 74°
2026-05-04 14:57 33.68514 -83.48463 23642 ft 472 kts 74°
2026-05-04 14:57 33.69234 -83.44609 23965 ft 475 kts 75°
2026-05-04 14:57 33.69954 -83.40725 24287 ft 478 kts 75°
2026-05-04 14:58 33.70673 -83.36824 24607 ft 480 kts 75°
2026-05-04 14:58 33.71396 -83.32901 24912 ft 483 kts 75°
2026-05-04 14:58 33.72123 -83.28951 25235 ft 485 kts 75°
2026-05-04 14:58 33.72856 -83.24986 25552 ft 488 kts 75°
2026-05-04 14:59 33.73583 -83.21054 25857 ft 490 kts 75°
2026-05-04 14:59 33.74389 -83.17065 26158 ft 491 kts 70°
2026-05-04 14:59 33.77234 -83.09666 26741 ft 488 kts 53°
2026-05-04 15:00 33.79049 -83.06200 27018 ft 490 kts 54°
2026-05-04 15:00 33.80861 -83.02719 27310 ft 493 kts 54°
2026-05-04 15:00 33.82675 -82.99212 27585 ft 495 kts 54°
2026-05-04 15:01 33.86320 -82.92129 28143 ft 500 kts 54°
2026-05-04 15:01 33.88127 -82.88609 28411 ft 503 kts 54°
2026-05-04 15:01 33.89970 -82.85023 28725 ft 503 kts 54°
2026-05-04 15:01 33.91812 -82.81445 29105 ft 503 kts 54°
2026-05-04 15:02 33.93654 -82.77862 29474 ft 503 kts 54°
2026-05-04 15:02 33.95491 -82.74283 29837 ft 502 kts 54°
2026-05-04 15:02 33.97325 -82.70705 30184 ft 502 kts 54°
2026-05-04 15:02 33.99158 -82.67118 30491 ft 502 kts 54°
2026-05-04 15:03 34.00981 -82.63531 30816 ft 502 kts 54°
2026-05-04 15:03 34.02772 -82.59988 31130 ft 502 kts 54°
2026-05-04 15:03 34.04585 -82.56393 31453 ft 501 kts 54°
2026-05-04 15:03 34.06392 -82.52806 31781 ft 501 kts 55°
2026-05-04 15:04 34.08199 -82.49216 32103 ft 500 kts 55°
2026-05-04 15:04 34.10001 -82.45635 32442 ft 499 kts 55°
2026-05-04 15:04 34.11803 -82.42058 32778 ft 499 kts 55°
2026-05-04 15:04 34.13603 -82.38479 33102 ft 498 kts 55°
2026-05-04 15:05 34.15397 -82.34905 33419 ft 498 kts 55°
2026-05-04 15:05 34.17165 -82.31377 33750 ft 497 kts 55°
2026-05-04 15:05 34.18956 -82.27802 34072 ft 497 kts 54°
2026-05-04 15:05 34.20744 -82.24237 34357 ft 496 kts 54°
2026-05-04 15:06 34.22531 -82.20673 34630 ft 496 kts 54°
2026-05-04 15:06 34.24317 -82.17110 34930 ft 495 kts 54°
2026-05-04 15:06 34.26100 -82.13547 35112 ft 496 kts 54°
2026-05-04 15:07 34.29664 -82.06451 35145 ft 492 kts 54°
2026-05-04 15:07 34.33206 -81.99430 35142 ft 492 kts 54°
2026-05-04 15:08 34.36766 -81.92361 35134 ft 492 kts 54°
2026-05-04 15:08 34.40311 -81.85274 35154 ft 492 kts 54°
2026-05-04 15:09 34.43851 -81.78181 35161 ft 492 kts 54°
2026-05-04 15:09 34.47382 -81.71080 35160 ft 492 kts 54°
2026-05-04 15:10 34.52663 -81.60482 35151 ft 492 kts 54°
2026-05-04 15:11 34.57953 -81.49833 35141 ft 491 kts 54°
2026-05-04 15:11 34.61469 -81.42724 35143 ft 491 kts 54°
2026-05-04 15:12 34.64955 -81.35661 35144 ft 491 kts 54°
2026-05-04 15:12 34.68461 -81.28543 35186 ft 491 kts 54°
2026-05-04 15:13 34.71958 -81.21421 35171 ft 491 kts 54°
2026-05-04 15:13 34.75459 -81.14284 35162 ft 491 kts 54°
2026-05-04 15:14 34.78936 -81.07188 35156 ft 492 kts 54°
2026-05-04 15:14 34.81909 -80.99647 35141 ft 496 kts 61°
2026-05-04 15:15 34.84741 -80.91985 35133 ft 499 kts 61°
2026-05-04 15:15 34.87600 -80.84240 35135 ft 502 kts 62°
2026-05-04 15:16 34.91866 -80.72629 35127 ft 503 kts 61°
2026-05-04 15:17 34.96149 -80.60926 35118 ft 504 kts 62°
2026-05-04 15:17 35.00411 -80.49210 35120 ft 504 kts 62°
2026-05-04 15:18 35.03256 -80.41401 35128 ft 504 kts 62°
2026-05-04 15:19 35.07492 -80.29716 35118 ft 504 kts 62°
2026-05-04 15:19 35.11735 -80.17951 35156 ft 505 kts 62°
2026-05-04 15:20 35.14561 -80.10105 35146 ft 505 kts 62°
2026-05-04 15:20 35.17367 -80.02288 35133 ft 506 kts 62°
2026-05-04 15:21 35.20185 -79.94406 35128 ft 506 kts 62°
2026-05-04 15:22 35.24414 -79.82582 35110 ft 506 kts 62°
2026-05-04 15:22 35.28628 -79.70812 35094 ft 506 kts 62°
2026-05-04 15:23 35.31440 -79.62906 35158 ft 507 kts 62°
2026-05-04 15:23 35.34248 -79.54987 35156 ft 507 kts 62°
2026-05-04 15:24 35.39825 -79.39168 35137 ft 508 kts 62°
2026-05-04 15:25 35.42622 -79.31214 35133 ft 508 kts 62°
2026-05-04 15:26 35.46818 -79.19263 35122 ft 509 kts 62°
2026-05-04 15:26 35.50974 -79.07349 35123 ft 508 kts 62°
2026-05-04 15:27 35.55147 -78.95371 35121 ft 509 kts 62°
2026-05-04 15:28 35.59305 -78.83365 35108 ft 509 kts 62°
2026-05-04 15:29 35.63444 -78.71406 35111 ft 509 kts 62°
2026-05-04 15:30 35.73057 -78.43302 35119 ft 511 kts 62°
2026-05-04 15:31 35.77181 -78.31196 35105 ft 511 kts 62°
2026-05-04 15:32 35.84052 -78.10986 35108 ft 512 kts 62°
2026-05-04 15:34 35.90847 -77.90782 35118 ft 512 kts 62°
2026-05-04 15:34 35.94935 -77.78591 35101 ft 513 kts 62°
2026-05-04 15:35 35.97960 -77.70737 35101 ft 504 kts 50°
2026-05-04 15:35 36.00012 -77.67275 35102 ft 496 kts 41°
2026-05-04 15:36 36.06986 -77.57922 35099 ft 494 kts 39°
2026-05-04 15:36 36.11640 -77.51660 35142 ft 495 kts 40°
2026-05-04 15:37 36.16266 -77.45422 35119 ft 495 kts 40°
2026-05-04 15:37 36.20923 -77.39135 35111 ft 496 kts 40°
2026-05-04 15:38 36.25589 -77.32839 35113 ft 496 kts 40°
2026-05-04 15:38 36.30253 -77.26528 35113 ft 496 kts 40°
2026-05-04 15:39 36.35189 -77.20750 35143 ft 489 kts 35°
2026-05-04 15:40 36.42769 -77.12271 35134 ft 489 kts 35°
2026-05-04 15:40 36.47815 -77.06617 35120 ft 488 kts 35°
2026-05-04 15:41 36.52816 -77.00992 35150 ft 488 kts 36°
2026-05-04 15:41 36.57825 -76.95349 35124 ft 484 kts 36°
2026-05-04 15:42 36.62812 -76.89726 35108 ft 483 kts 36°
2026-05-04 15:42 36.67789 -76.84103 35110 ft 483 kts 36°
2026-05-04 15:43 36.72763 -76.78481 35105 ft 483 kts 36°
2026-05-04 15:43 36.77703 -76.72884 35125 ft 483 kts 36°
2026-05-04 15:44 36.82661 -76.67245 35118 ft 482 kts 37°
2026-05-04 15:44 36.87611 -76.61607 35120 ft 481 kts 36°
2026-05-04 15:45 36.92556 -76.55978 35108 ft 481 kts 37°
2026-05-04 15:45 36.97465 -76.50379 35100 ft 480 kts 37°
2026-05-04 15:46 37.02393 -76.44746 35086 ft 480 kts 37°
2026-05-04 15:46 37.07321 -76.39091 35071 ft 481 kts 37°
2026-05-04 15:47 37.12257 -76.33433 35074 ft 481 kts 37°
2026-05-04 15:47 37.17153 -76.27798 35108 ft 481 kts 37°
2026-05-04 15:48 37.22079 -76.22112 35095 ft 481 kts 37°
2026-05-04 15:48 37.29463 -76.13588 35091 ft 481 kts 37°
2026-05-04 15:49 37.34351 -76.07931 35086 ft 481 kts 37°
2026-05-04 15:49 37.39276 -76.02226 35111 ft 481 kts 37°
2026-05-04 15:50 37.44189 -75.96510 35104 ft 481 kts 37°
2026-05-04 15:50 37.49101 -75.90783 35099 ft 481 kts 37°
2026-05-04 15:51 37.54102 -75.85318 35090 ft 474 kts 28°
2026-05-04 15:51 37.59703 -75.81038 35091 ft 470 kts 24°
2026-05-04 15:52 37.65336 -75.76831 35092 ft 471 kts 25°
2026-05-04 15:52 37.70970 -75.72611 35080 ft 471 kts 25°
2026-05-04 15:53 37.76611 -75.68370 35074 ft 472 kts 25°
2026-05-04 15:53 37.82216 -75.64149 35082 ft 472 kts 25°
2026-05-04 15:54 37.87799 -75.59747 35079 ft 475 kts 28°
2026-05-04 15:54 37.93236 -75.54961 35078 ft 476 kts 30°
2026-05-04 15:55 37.98632 -75.50103 35067 ft 476 kts 29°
2026-05-04 15:55 38.04022 -75.45335 35087 ft 475 kts 28°
2026-05-04 15:56 38.09514 -75.40679 35072 ft 474 kts 27°
2026-05-04 15:56 38.15090 -75.36226 35061 ft 474 kts 26°
2026-05-04 15:57 38.20675 -75.31764 35079 ft 475 kts 27°
2026-05-04 15:57 38.26471 -75.28114 35075 ft 462 kts 11°
2026-05-04 15:58 38.32689 -75.26520 35072 ft 455 kts
2026-05-04 15:58 38.38932 -75.25226 35070 ft 455 kts
2026-05-04 15:59 38.45182 -75.23915 35097 ft 455 kts
2026-05-04 15:59 38.51427 -75.22593 35084 ft 455 kts
2026-05-04 16:00 38.57626 -75.21293 35077 ft 454 kts
2026-05-04 16:00 38.63863 -75.19981 35096 ft 454 kts
2026-05-04 16:01 38.70019 -75.17998 35059 ft 465 kts 18°
2026-05-04 16:01 38.75556 -75.13515 35050 ft 476 kts 32°
2026-05-04 16:02 38.80791 -75.08388 35047 ft 477 kts 32°
2026-05-04 16:03 38.88708 -75.00625 35059 ft 479 kts 32°
2026-05-04 16:03 38.92208 -74.97175 35055 ft 479 kts 32°